Location: Camaret
(48.2753°N, 4.5961°W)
Time: 03:39:17
(UTC+00:00)

Meteor 2-3 Rocket - Pass Details

Date: 29 October 2020
Orbit: 843 x 885 km, 81.2° (Epoch: 01 December)

Event Time Altitude Azimuth Distance (km) Brightness Sun altitude
Rises 19:54:16 0° 347° (NNW) 3,460 7.2 -28.8°
Reaches altitude 10° 19:56:42 10° 347° (NNW) 2,524 6.4 -29.2°
Enters shadow 20:01:54 72° 321° (NW) 919 3.8 -30.1°
